EN

Hourly Weather Ladek Zdroj

Today, 25 July, Sunday

Time Temperature Precipitation Wind Pressure Humidity
00:00 +18°C° 0 mm 1 mps 718 mmHg 70%
01:00 +18°C° 0 mm 1 mps 718 mmHg 69%
02:00 +19°C° 0 mm 1 mps 717 mmHg 66%
03:00 +19°C° 0 mm 1 mps 717 mmHg 64%
04:00 +20°C° 0 mm 1 mps 717 mmHg 61%
05:00 +20°C° 0.1 mm 2 mps 717 mmHg 63%
06:00 +20°C° 0.1 mm 2 mps 718 mmHg 65%
07:00 +21°C° 0.1 mm 2 mps 718 mmHg 67%
08:00 +20°C° 1 mm 2 mps 718 mmHg 75%
09:00 +19°C° 1 mm 2 mps 718 mmHg 83%
10:00 +18°C° 1 mm 3 mps 718 mmHg 92%
11:00 +18°C° 0.8 mm 2 mps 718 mmHg 89%
12:00 +19°C° 0.8 mm 2 mps 718 mmHg 87%
13:00 +19°C° 0.8 mm 2 mps 718 mmHg 84%
14:00 +20°C° 0 mm 2 mps 718 mmHg 78%
15:00 +21°C° 0 mm 2 mps 718 mmHg 72%
16:00 +23°C° 0 mm 2 mps 718 mmHg 67%
17:00 +21°C° 0 mm 2 mps 718 mmHg 71%
18:00 +20°C° 0 mm 2 mps 717 mmHg 76%
19:00 +21°C° 0 mm 1 mps 717 mmHg 81%
20:00 +20°C° 0 mm 1 mps 717 mmHg 83%
21:00 +19°C° 0 mm 1 mps 717 mmHg 86%
22:00 +18°C° 0 mm 1 mps 717 mmHg 88%
23:00 +16°C° 0 mm 1 mps 717 mmHg 89%

Tomorrow, 26 July, Monday

Time Temperature Precipitation Wind Pressure Humidity
00:00 +16°C° 0 mm 1 mps 717 mmHg 89%
01:00 +16°C° 0 mm 1 mps 717 mmHg 89%
02:00 +16°C° 0 mm 1 mps 716 mmHg 90%
03:00 +15°C° 0 mm 1 mps 716 mmHg 91%
04:00 +15°C° 0 mm 1 mps 716 mmHg 92%
05:00 +18°C° 0 mm 1 mps 717 mmHg 87%
06:00 +19°C° 0 mm 1 mps 717 mmHg 83%
07:00 +20°C° 0 mm 1 mps 717 mmHg 78%
08:00 +22°C° 0 mm 1 mps 718 mmHg 73%
09:00 +23°C° 0 mm 1 mps 718 mmHg 68%
10:00 +25°C° 0 mm 1 mps 718 mmHg 62%
11:00 +26°C° 0 mm 2 mps 718 mmHg 59%
12:00 +27°C° 0 mm 2 mps 718 mmHg 56%
13:00 +28°C° 0 mm 2 mps 718 mmHg 52%
14:00 +28°C° 0.1 mm 2 mps 718 mmHg 53%
15:00 +28°C° 0.1 mm 1 mps 718 mmHg 53%
16:00 +28°C° 0.1 mm 1 mps 718 mmHg 54%
17:00 +26°C° 0.1 mm 1 mps 718 mmHg 60%
18:00 +25°C° 0.1 mm 1 mps 718 mmHg 67%
19:00 +24°C° 0.1 mm 1 mps 717 mmHg 74%
20:00 +22°C° 0.3 mm 1 mps 718 mmHg 77%
21:00 +21°C° 0.3 mm 1 mps 718 mmHg 81%
22:00 +20°C° 0.3 mm 1 mps 718 mmHg 84%
23:00 +20°C° 2 mm 1 mps 718 mmHg 88%

Day after tomorrow, 27 July, Tuesday

Time Temperature Precipitation Wind Pressure Humidity
00:00 +19°C° 2 mm 1 mps 718 mmHg 92%
01:00 +18°C° 2 mm 2 mps 718 mmHg 96%
02:00 +19°C° 1.2 mm 1 mps 718 mmHg 96%
03:00 +19°C° 1.2 mm 1 mps 718 mmHg 97%
04:00 +19°C° 1.2 mm 1 mps 718 mmHg 97%
05:00 +19°C° 0.2 mm 1 mps 719 mmHg 97%
06:00 +19°C° 0.2 mm 1 mps 719 mmHg 96%
07:00 +19°C° 0.2 mm 1 mps 719 mmHg 95%
08:00 +20°C° 0.4 mm 1 mps 720 mmHg 93%
09:00 +20°C° 0.4 mm 1 mps 720 mmHg 91%
10:00 +20°C° 0.4 mm 1 mps 720 mmHg 88%
11:00 +22°C° 0.3 mm 1 mps 720 mmHg 80%
12:00 +24°C° 0.3 mm 1 mps 720 mmHg 71%
13:00 +25°C° 0.3 mm 1 mps 721 mmHg 62%
14:00 +26°C° 0.1 mm 1 mps 720 mmHg 60%
15:00 +26°C° 0.1 mm 1 mps 720 mmHg 57%
16:00 +27°C° 0.1 mm 1 mps 720 mmHg 54%
17:00 +26°C° 0 mm 1 mps 720 mmHg 60%
18:00 +25°C° 0 mm 1 mps 720 mmHg 66%
19:00 +23°C° 0 mm 1 mps 720 mmHg 71%
20:00 +22°C° 0 mm 1 mps 720 mmHg 74%
21:00 +22°C° 0 mm 1 mps 720 mmHg 76%
22:00 +21°C° 0 mm 1 mps 720 mmHg 78%
23:00 +20°C° 0 mm 1 mps 720 mmHg 79%

28 July, Wednesday

Time Temperature Precipitation Wind Pressure Humidity
00:00 +19°C° 0 mm 2 mps 720 mmHg 80%
01:00 +19°C° 0 mm 2 mps 720 mmHg 81%
02:00 +18°C° 0 mm 2 mps 720 mmHg 82%
03:00 +19°C° 0 mm 1 mps 720 mmHg 82%
04:00 +19°C° 0 mm 1 mps 719 mmHg 83%
05:00 +20°C° 0 mm 1 mps 719 mmHg 78%
06:00 +22°C° 0 mm 1 mps 720 mmHg 73%
07:00 +21°C° 0 mm 0 mps 720 mmHg 68%
08:00 +25°C° 0 mm 1 mps 719 mmHg 61%
09:00 +26°C° 0 mm 1 mps 719 mmHg 55%
10:00 +27°C° 0 mm 2 mps 719 mmHg 49%
11:00 +28°C° 0 mm 2 mps 719 mmHg 46%
12:00 +29°C° 0 mm 2 mps 719 mmHg 44%
13:00 +30°C° 0 mm 2 mps 719 mmHg 41%
14:00 +28°C° 0.9 mm 3 mps 719 mmHg 50%
15:00 +27°C° 0.9 mm 4 mps 719 mmHg 60%
16:00 +25°C° 0.9 mm 5 mps 718 mmHg 69%
17:00 +22°C° 2.5 mm 4 mps 719 mmHg 78%
18:00 +20°C° 2.5 mm 2 mps 719 mmHg 87%
19:00 +19°C° 2.5 mm 1 mps 719 mmHg 95%
20:00 +19°C° 0 mm 1 mps 720 mmHg 95%
21:00 +18°C° 0 mm 1 mps 720 mmHg 95%
22:00 +18°C° 0 mm 1 mps 720 mmHg 94%
23:00 +18°C° 0 mm 1 mps 720 mmHg 94%

29 July, Thursday

Time Temperature Precipitation Wind Pressure Humidity
00:00 +16°C° 0 mm 1 mps 720 mmHg 94%
01:00 +16°C° 0 mm 1 mps 720 mmHg 93%
02:00 +16°C° 0 mm 1 mps 720 mmHg 93%
03:00 +16°C° 0 mm 1 mps 720 mmHg 93%
04:00 +16°C° 0 mm 1 mps 720 mmHg 93%
05:00 +18°C° 0 mm 1 mps 720 mmHg 89%
06:00 +19°C° 0 mm 1 mps 720 mmHg 86%
07:00 +21°C° 0 mm 1 mps 720 mmHg 82%
08:00 +23°C° 0 mm 1 mps 720 mmHg 73%
09:00 +25°C° 0 mm 1 mps 720 mmHg 64%
10:00 +27°C° 0 mm 1 mps 720 mmHg 54%
11:00 +28°C° 0 mm 1 mps 720 mmHg 51%
12:00 +29°C° 0 mm 2 mps 720 mmHg 48%
13:00 +30°C° 0 mm 2 mps 720 mmHg 46%
14:00 +30°C° 0 mm 2 mps 720 mmHg 46%
15:00 +30°C° 0 mm 2 mps 720 mmHg 47%
16:00 +30°C° 0 mm 2 mps 719 mmHg 47%
17:00 +28°C° 0 mm 1 mps 719 mmHg 55%
18:00 +27°C° 0 mm 1 mps 719 mmHg 63%
19:00 +25°C° 0 mm 1 mps 719 mmHg 71%
20:00 +23°C° 1.6 mm 1 mps 719 mmHg 79%
21:00 +21°C° 1.6 mm 2 mps 719 mmHg 87%
22:00 +19°C° 1.6 mm 2 mps 719 mmHg 95%
23:00 +19°C° 0.5 mm 2 mps 719 mmHg 94%

30 July, Friday

Time Temperature Precipitation Wind Pressure Humidity
00:00 +20°C° 0.5 mm 1 mps 719 mmHg 94%
01:00 +19°C° 0.5 mm 1 mps 719 mmHg 93%
02:00 +19°C° 0 mm 1 mps 719 mmHg 93%
03:00 +19°C° 0 mm 1 mps 719 mmHg 93%
04:00 +19°C° 0 mm 1 mps 719 mmHg 93%
05:00 +20°C° 0 mm 1 mps 719 mmHg 90%
06:00 +21°C° 0 mm 1 mps 719 mmHg 87%
07:00 +22°C° 0 mm 1 mps 719 mmHg 85%
08:00 +23°C° 0 mm 1 mps 719 mmHg 80%
09:00 +24°C° 0 mm 1 mps 719 mmHg 75%
10:00 +25°C° 0 mm 1 mps 720 mmHg 70%
11:00 +25°C° 0.1 mm 1 mps 719 mmHg 66%
12:00 +26°C° 0.1 mm 1 mps 719 mmHg 63%
13:00 +27°C° 0.1 mm 1 mps 718 mmHg 60%
14:00 +26°C° 0.2 mm 2 mps 718 mmHg 62%
15:00 +26°C° 0.2 mm 2 mps 718 mmHg 65%
16:00 +26°C° 0.2 mm 3 mps 718 mmHg 68%
17:00 +24°C° 0.5 mm 2 mps 718 mmHg 75%
18:00 +21°C° 0.5 mm 2 mps 718 mmHg 83%
19:00 +20°C° 0.5 mm 2 mps 718 mmHg 91%
20:00 +20°C° 0 mm 1 mps 718 mmHg 91%
21:00 +20°C° 0 mm 1 mps 718 mmHg 91%
22:00 +19°C° 0 mm 1 mps 718 mmHg 91%
23:00 +19°C° 0 mm 1 mps 719 mmHg 91%
Show more